This is the latest recevied weather packets stored in our database for station/object IW1CBG-3. If no packets are shown the sender has not sent any weather packets the latest 1 day(s).
| Time | Temp. | Humidity | Pressure | Rain* | Wind** | Luminosity | Snow |
|---|---|---|---|---|---|---|---|
| 1778009867 | 9.44° C | 99% | 1024.6 hPa | 0 mm | 0 m/s | - | - |
| 1778009267 | 9.44° C | 99% | 1024.5 hPa | 0 mm | 0.45 m/s, 195° | - | - |
| 1778008667 | 9.44° C | 98% | 1024.5 hPa | 0 mm | 0 m/s | - | - |
| 1778008067 | 9.44° C | 98% | 1024.5 hPa | 0 mm | 1.34 m/s, 129° | - | - |
| 1778007468 | 9.44° C | 98% | 1024.2 hPa | 0 mm | 0 m/s | - | - |
| 1778006868 | 10° C | 98% | 1024.3 hPa | 0 mm | 0.45 m/s, 159° | - | - |
| 1778006268 | 10° C | 98% | 1024.3 hPa | 0 mm | 0 m/s | - | - |
| 1778005668 | 10° C | 97% | 1024.2 hPa | 0 mm | 0 m/s | - | - |
| 1778005068 | 10.56° C | 97% | 1024.1 hPa | 0 mm | 0 m/s | - | - |
| 1778004469 | 10.56° C | 97% | 1023.8 hPa | 0 mm | 0 m/s | - | - |
| 1778003868 | 11.11° C | 97% | 1023.6 hPa | 0 mm | 1.79 m/s, 136° | - | - |
| 1778003268 | 11.11° C | 97% | 1023.8 hPa | 0 mm | 3.13 m/s, 148° | - | - |
| 1778002667 | 11.11° C | 96% | 1023.6 hPa | 0 mm | 1.79 m/s, 117° | - | - |
| 1778002067 | 11.67° C | 96% | 1023.5 hPa | 0 mm | 0 m/s | - | - |
| 1778001468 | 11.11° C | 96% | 1023.7 hPa | 0 mm | 0 m/s | - | - |
| 1778000871 | 11.11° C | 95% | 1023.8 hPa | 0 mm | 0.89 m/s, 128° | - | - |
| 1778000268 | 11.11° C | 96% | 1023.8 hPa | 0 mm | 0 m/s | - | - |
| 1777999068 | 11.11° C | 95% | 1024 hPa | 0 mm | 0.89 m/s, 352° | - | - |
| 1777998468 | 11.11° C | 96% | 1024.2 hPa | 0 mm | 0 m/s | - | - |
| 1777997867 | 11.11° C | 96% | 1024.1 hPa | 0 mm | 0.45 m/s, 144° | - | - |
| 1777997268 | 10.56° C | 97% | 1024.2 hPa | 0 mm | 0 m/s | - | - |
| 1777996669 | 10.56° C | 97% | 1024.2 hPa | 0 mm | 0 m/s | - | - |
| 1777996068 | 11.11° C | 98% | 1024.2 hPa | 0 mm | 0 m/s | - | - |
| 1777995468 | 10.56° C | 98% | 1024.2 hPa | 0 mm | 0 m/s | - | - |
| 1777994868 | 10.56° C | 98% | 1024.5 hPa | 0 mm | 0 m/s | - | - |
* Rain latest hour (hover to see other rain measurements)
** Current wind speed in m/s (hover to see current wind gust speed)